Other Public Products
Issued by NWS Grand Forks, ND

Home | Current Version | Previous Version | Graphics & Text | Print | Product List | Glossary On
Versions: 1 2 3 4 5 6 7 8 9 10 11 12 13 14 15 16 17 18 19 20 21 22 23 24 25 26 27 28 29 30 31 32 33 34 35 36 37 38 39 40 41 42 43 44 45 46 47 48 49 50
000
FPUS83 KFGF 262131
OPUFGF
PRAIRIE TO PINES WEATHER ROUNDUP
NATIONAL WEATHER SERVICE EASTERN NORTH DAKOTA/GRAND FORKS ND
400 PM CDT TUE JUL 26 2016

 **SATELLITE DATA USED TO AUGMENT SKY COVER AT AUTOMATED STATIONS**
 *****  WEATHER ACROSS EASTERN NORTH DAKOTA  *****

CITY           SKY/WX    TMP DP  RH WIND       PRES   REMARKS
GRAND FORKS    PTSUNNY   87  65  47 N8        29.95R
GRAND FORKS AF FAIR      86  61  42 NE8       29.97R
GRAND CITY NWS   N/A     84 N/A N/A N14         N/A
BUXTON           N/A     86  65  49 NE8         N/A
DEVILS LAKE    FAIR      81  64  56 VRB3      30.00F
FARGO          FAIR      84  71  65 E6        29.94S
WAHPETON ARPT  FAIR      81  63  54 W10       29.97R
$$

 *****  WEATHER ACROSS CENTRAL AND WESTERN NORTH DAKOTA  *****

CITY           SKY/WX    TMP DP  RH WIND       PRES   REMARKS
JAMESTOWN      FAIR      73  66  78 SW5       29.96F
BISMARCK       MOSUNNY   83  66  56 NE16      29.99R
MINOT          FAIR      82  63  52 N17       30.02F
MINOT AFB      FAIR      79  60  51 N16       30.02F
GARRISON         N/A     75  66  73 NE7       30.02S
WILLISTON      CLOUDY    81  59  47 N14       30.08R
DICKINSON      PTSUNNY   76  61  59 NE13      30.06R
HETTINGER      MOSUNNY   87  55  33 N15G21    30.04R
$$

 *****  OTHER OBSERVATIONS NORTHEAST NORTH DAKOTA  *****

CITY           SKY/WX    TMP DP  RH WIND       PRES   REMARKS
WALHALLA       FAIR      75  72  88 NE7       30.01S
LANGDON        MOCLDY    73  64  73 NE15      30.03S
CAVALIER       FAIR      79  63  57 N9G18     30.00R
GRAFTON        FAIR      81  68  65 N9        29.98S
CANDO          MOCLDY    75  68  78 N14       30.03S
FORT TOTTEN      N/A     83  65  53 E2        29.95S
ROLLA          FAIR      73  63  68 NE9       30.06S
RUGBY          NOT AVBL
 ***** THE ABOVE OBSERVATIONS ARE NON NWS ARE NOT QUALITY
        CONTROLLED AND MAY MIS-REPORT RAIN FOR SNOW...
$$

 *****  OTHER OBSERVATIONS SOUTHEAST NORTH DAKOTA *****

CITY           SKY/WX    TMP DP  RH WIND       PRES   REMARKS
COOPERSTOWN    NOT AVBL
VALLEY CITY    MOCLDY    75  70  83 SW14      29.99S
OAKES            N/A    N/A N/A N/A MISG        N/A
GWINNER        FAIR      70  66  88 SW5       29.99F
BUFFALO          N/A     82  65  55 N3          N/A
WYNDMERE         N/A     81  66  61 SW7         N/A
 ***** THE ABOVE OBSERVATIONS ARE NON NWS ARE NOT QUALITY
       CONTROLLED AND MAY MIS-REPORT RAIN FOR SNOW...
$$

  *****  WEATHER ACROSS NORTHERN MINNESOTA  *****

CITY           SKY/WX    TMP DP  RH WIND       PRES   REMARKS
FLAG ISLAND    FAIR      79  55  44 N9        29.97S
WARROAD        FAIR      79  64  61 E7        29.99S
ROSEAU         FAIR      81  66  61 NE7       29.98R
HALLOCK        FAIR      81  64  57 N10       29.97R
THF RVR FALLS  FAIR      84  62  47 VRB3      29.99R
HALSTAD          N/A     87  68  53 NE5         N/A  HX  90
FOSSTON        FAIR      84  66  54 NE6       29.97S
BAUDETTE       FAIR      82  62  50 N13       29.97F
WASKISH        FAIR      86  64  48 W5        29.96R
CROOKSTON      FAIR      84  63  48 NE7       29.96F
$$
  *****  WEATHER ACROSS CENTRAL AND WEST MINNESOTA  *****

CITY           SKY/WX    TMP DP  RH WIND       PRES   REMARKS
BEMIDJI        PTSUNNY   82  66  57 N7        29.97S
PARK RAPIDS    FAIR      80  66  62 SW6       29.98R
WADENA         FAIR      81  68  65 CALM      29.97F
DETROIT LAKES  FAIR      79  68  69 W3        30.00S
MOORHEAD       FAIR      82  70  65 CALM      29.96R
FERGUS FALLS   FAIR      82  66  57 W3        29.98R
ELBOW LAKE     FAIR      82  69  65 SW7       29.98S HAZE
MORRIS MN      FAIR      82  68  61 SW10      29.98S
STAPLES        FAIR      81  68  65 NE5       29.98S
WHEATON        FAIR      82  70  65 W6        29.99S
$$
  *****  WEATHER ELSEWHERE ACROSS MINNESOTA  *****

CITY           SKY/WX    TMP DP  RH WIND       PRES   REMARKS
DULUTH         FAIR      82  67  60 W10       29.97S
INTRNTL FALLS  FAIR      81  64  56 NE9       29.95S
ELY            FAIR      81  59  47 CALM      29.95F
CLOQUET        FAIR      81  64  57 CALM      29.96F
BRAINERD       FAIR      81  66  60 NW3       29.98S
HIBBING        FAIR      78  68  71 SW8       29.96F
ALEXANDRIA     FAIR      86  69  56 SW21      29.98F THUNDER HX  90
SAINT CLOUD    FAIR      87  71  58 SW13      29.98S HX  93
MINNEAPOLIS    FAIR      90  63  40 W18G25    29.98S HX  91
$$

  *****  WEATHER ACROSS SOUTH DAKOTA  *****

CITY           SKY/WX    TMP DP  RH WIND       PRES   REMARKS
SIOUX FALLS    PTSUNNY   86  64  47 S13G20    30.02S
BROOKINGS      FAIR      82  67  60 S7        30.03S
WATERTOWN      RAIN      73  67  81 SW7       30.06R
HURON          CLOUDY    71  66  84 E12       29.99F
SISSETON         N/A     74  65  73 NW8       29.98R
ABERDEEN       CLOUDY    70  65  84 NE5       30.02R
MITCHELL       CLOUDY    87  62  43 SE8       29.98R
PIERRE         MOSUNNY   93  60  33 E16       29.93S HX  93
MOBRIDGE       CLOUDY    86  66  51 E14       29.94R
RAPID CITY     MOSUNNY   90  57  32 NE10      30.03S
$$

  *****  SOME WEATHER IN NEARBY STATES *****

CITY           SKY/WX    TMP DP  RH WIND       PRES   REMARKS
GLASGOW MT     SUNNY     83  60  45 E14G24    30.05S
GREAT FALLS MT SUNNY     89  45  21 VRB5      30.03F
CHEYENNE WY    CLOUDY    88  38  17 VRB6      30.19F
SCOTTSBLUFF NE MOSUNNY   93  52  24 E6        30.00F HX  90
OMAHA NE       PTSUNNY   86  64  47 E8        30.02F
DES MOINES IA  FAIR      86  64  47 E8        30.02F
DAVENPORT IA   FAIR      85  63  47 VRB5      30.03F
CHICAGO IL     FAIR      85  64  49 E7        30.01F
EAU CLAIRE WI  FAIR      89  63  41 SW16      29.97F HX  90
LA CROSSE WI   FAIR      88  66  48 SW6       30.00F HX  90
$$

  *****  SOME NATIONAL WEATHER *****

CITY           SKY/WX    TMP DP  RH WIND       PRES   REMARKS
LA GUARDIA NY  PTSUNNY   90  64  42 W8        29.85S HX  91
RALEIGH NC     FAIR      96  73  47 W9        29.93F HX 105
ATLANTA GA     MOSUNNY   95  58  28 SE8       30.01F HX  94
NEW ORLEANS LA LGT RAIN  80  75  84 S15       29.92F
OKLAHOMA CITY  PTSUNNY   89  72  56 NW6       29.95F HX  96
ALBUQUERQUE NM MOSUNNY   89  52  28 W8        30.14F
SALT LAKE CITY MOSUNNY  103  41  12 N7G20     30.00F HX  98
LOS ANGELES CA MOSUNNY   77  64  64 W15       29.88F
BOISE ID       SUNNY     95  44  17 NW12      29.97F HX  91
SEATTLE WA     MOSUNNY   69  58  67 VRB5      30.17F
$$

*** WEATHER ACROSS MANITOBA...SASKATCHEWAN AND ONTARIO ***
                ***ONTARIO***

CITY           SKY/WX    TMP DP  RH WIND       PRES   REMARKS
GERALDTON      MOSUNNY   79  50  36 W13G23    29.88R
THUNDER BAY    PTSUNNY   86  63  45 NW12      29.86F
SIOUX LOOKOUT  MOSUNNY   77  55  47 NW12G23   29.95F
TORONTO        PTSUNNY   84  61  45 E7        29.94F
BIG TROUT LK   NOT AVBL
PICKLE LAKE    PTSUNNY   73  50  43 VRB8G21   29.91R
DRYDEN         SUNNY     79  50  36 NW12G20   29.96F
KENORA         MOSUNNY   79  50  36 NW13      29.99F
$$
                *** MANITOBA***

CITY           SKY/WX    TMP DP  RH WIND       PRES   REMARKS
BRANDON        PTSUNNY   79  59  50 VRB12     30.04F
DAUPHIN        MOSUNNY   75  59  57 NE16      30.08S
ISLAND LAKE    CLOUDY    61  55  82 NW10G17   30.07R
PILOT MOUND      N/A     75  57  53 NE9         N/A
THE PAS        MOSUNNY   72  45  37 N5        30.12S
THOMPSON       CLOUDY    63  52  67 N6        30.12R
WINNIPEG       MOSUNNY   79  55  44 N9        30.00F
LYNN LAKE      SUNNY     70  39  32 MISG      30.12S
CHURCHILL      PTSUNNY   54  48  82 N15       30.08R
GILLAM         CLOUDY    59  50  72 N14       30.09R
$$
                ***SASKATCHEWAN***

CITY           SKY/WX    TMP DP  RH WIND       PRES   REMARKS
ESTEVAN        PTSUNNY   77  59  53 N5        30.08
KINDERSLEY     MOSUNNY   73  57  56 SE10      30.13S
LLOYDMINSTER   MOSUNNY   77  54  44 S8G18     30.10F
PRINCE ALBERT  MOSUNNY   75  55  50 CALM      30.12F
REGINA         PTSUNNY   75  50  41 N6        30.11S
YORKTON        SUNNY     72  52  49 N8        30.10F
N. BATTLEFORD  SUNNY     77  50  38 S5        30.14S   C1F1C2F2C3F3C4F4C5F5C6F6C7F7C8F8C9F9CaFaCbFbCcFcCdFdCe!



USA.gov is the U.S. government's official web portal to all federal, state and local government web resources and services.